,,,PA_Meas_PMT16A,,PR_Meas_QMR101_102,,RH_Meas_QMH101,,SR_Meas_QMS101,,TA_Meas_QMH101,,GenWind,,GenWind,
date,time,status,PA,status,PR,status,RH,status,SR,status,TA,status,DirAvg,status,SpdAvg,
2014-06-05, 00:00:04,VALID,1006.42,VALID,0,VALID,104,VALID,0,VALID,24.0448,VALID,315,VALID,0,
2014-06-05, 00:01:04,VALID,1006.41,VALID,0,VALID,104,VALID,0,VALID,24.0643,VALID,315,VALID,0,
2014-06-05, 00:02:04,VALID,1006.44,VALID,0,VALID,104,VALID,0,VALID,24.1245,VALID,315,VALID,0,
2014-06-05, 00:03:04,VALID,1006.43,VALID,0,VALID,104,VALID,0,VALID,24.1422,VALID,315,VALID,0,
2014-06-05, 00:04:04,VALID,1006.43,VALID,0,VALID,104,VALID,0,VALID,24.1227,VALID,315,VALID,0,
2014-06-05, 00:05:04,VALID,1006.41,VALID,0,VALID,104,VALID,0,VALID,24.1227,VALID,315,VALID,0,
2014-06-05, 00:06:04,VALID,1006.39,VALID,0,VALID,104,VALID,0,VALID,24.1032,VALID,315,VALID,0,
2014-06-05, 00:07:04,VALID,1006.34,VALID,0,VALID,104,VALID,0,VALID,24.0837,VALID,315,VALID,0,
2014-06-05, 00:08:04,VALID,1006.33,VALID,0,VALID,104,VALID,0,VALID,24.0856,VALID,315,VALID,0,
2014-06-05, 00:09:04,VALID,1006.3,VALID,0,VALID,104,VALID,0,VALID,24.0253,VALID,315,VALID,0,
2014-06-05, 00:10:04,VALID,1006.27,VALID,0,VALID,104,VALID,0,VALID,24.0058,VALID,315,VALID,0,
2014-06-05, 00:11:04,VALID,1006.22,VALID,0,VALID,104,VALID,0,VALID,23.9668,VALID,315,VALID,0,
2014-06-05, 00:12:04,VALID,1006.18,VALID,0,VALID,104,VALID,0,VALID,23.9491,VALID,315,VALID,0,
2014-06-05, 00:13:04,VALID,1006.14,VALID,0,VALID,104,VALID,0,VALID,23.8889,VALID,315,VALID,0,
2014-06-05, 00:14:04,VALID,1006.15,VALID,0,VALID,104,VALID,0,VALID,23.8694,VALID,315,VALID,0,
2014-06-05, 00:15:04,VALID,1006.13,VALID,0,VALID,104,VALID,0,VALID,23.8517,VALID,315,VALID,0,
2014-06-05, 00:16:04,VALID,1006.15,VALID,0,INVALID,109.079,VALID,0,VALID,23.8109,VALID,315,VALID,0,
2014-06-05, 00:17:04,VALID,1006.16,VALID,0,INVALID,109.132,VALID,0,VALID,23.8109,VALID,315,VALID,0,
2014-06-05, 00:18:04,VALID,1006.18,VALID,0,INVALID,109.216,VALID,0,VALID,23.7932,VALID,315,VALID,0,
2014-06-05, 00:19:04,VALID,1006.19,VALID,0,INVALID,109.247,VALID,0,VALID,23.772,VALID,315,VALID,0,
2014-06-05, 00:20:04,VALID,1006.2,VALID,0,INVALID,109.323,VALID,0,VALID,23.7932,VALID,315,VALID,0,
2014-06-05, 00:21:04,VALID,1006.2,VALID,0,INVALID,109.43,VALID,0,VALID,23.7525,VALID,315,VALID,0,
2014-06-05, 00:22:04,VALID,1006.21,VALID,0,INVALID,109.536,VALID,0,VALID,23.7525,VALID,315,VALID,0,
2014-06-05, 00:23:04,VALID,1006.21,VALID,0,INVALID,109.574,VALID,0,VALID,23.7525,VALID,315,VALID,0,
2014-06-05, 00:24:04,VALID,1006.21,VALID,0,INVALID,109.643,VALID,0,VALID,23.7525,VALID,315,VALID,0,
2014-06-05, 00:25:04,VALID,1006.17,VALID,0,INVALID,109.681,VALID,0,VALID,23.772,VALID,315,VALID,0,
2014-06-05, 00:26:04,VALID,1006.16,VALID,0,INVALID,109.78,VALID,0,VALID,23.7738,VALID,315,VALID,0,
2014-06-05, 00:27:04,VALID,1006.2,VALID,0,INVALID,109.803,VALID,0,VALID,23.7738,VALID,315,VALID,0,
2014-06-05, 00:28:04,VALID,1006.2,VALID,0,INVALID,109.841,VALID,0,VALID,23.7525,VALID,315,VALID,0,
2014-06-05, 00:29:04,VALID,1006.19,VALID,0,INVALID,109.864,VALID,0,VALID,23.7525,VALID,315,VALID,0,
2014-06-05, 00:30:04,VALID,1006.22,VALID,0,INVALID,109.895,VALID,0,VALID,23.7738,VALID,315,VALID,0,
2014-06-05, 00:31:04,VALID,1006.24,VALID,0,INVALID,109.902,VALID,0,VALID,23.7525,VALID,315,VALID,0,
2014-06-05, 00:32:04,VALID,1006.24,VALID,0,INVALID,109.925,VALID,0,VALID,23.7543,VALID,315,VALID,0,
2014-06-05, 00:33:04,VALID,1006.26,VALID,0,INVALID,109.979,VALID,0,VALID,23.7543,VALID,315,VALID,0,
2014-06-05, 00:34:04,VALID,1006.27,VALID,0,INVALID,110.009,VALID,0,VALID,23.7543,VALID,315,VALID,0,
2014-06-05, 00:35:04,VALID,1006.29,VALID,0,INVALID,110.017,VALID,0,VALID,23.733,VALID,315,VALID,0,
2014-06-05, 00:36:04,VALID,1006.27,VALID,0,INVALID,110.063,VALID,0,VALID,23.733,VALID,315,VALID,0,
2014-06-05, 00:37:04,VALID,1006.29,VALID,0,INVALID,110.078,VALID,0,VALID,23.7525,VALID,315,VALID,0,
2014-06-05, 00:38:04,VALID,1006.29,VALID,0,INVALID,110.124,VALID,0,VALID,23.7525,VALID,315,VALID,0,
2014-06-05, 00:39:04,VALID,1006.24,VALID,0,INVALID,110.101,VALID,0,VALID,23.7525,VALID,315,VALID,0,
2014-06-05, 00:40:04,VALID,1006.22,VALID,0,INVALID,110.154,VALID,0,VALID,23.7525,VALID,315,VALID,0,
2014-06-05, 00:41:04,VALID,1006.18,VALID,0,INVALID,110.139,VALID,0,VALID,23.7525,VALID,315,VALID,0,
2014-06-05, 00:42:04,VALID,1006.16,VALID,0,INVALID,110.177,VALID,0,VALID,23.7525,VALID,315,VALID,0,
2014-06-05, 00:43:04,VALID,1006.11,VALID,0,INVALID,110.162,VALID,0,VALID,23.7738,VALID,315,VALID,0,
2014-06-05, 00:44:04,VALID,1006.07,VALID,0,INVALID,110.185,VALID,0,VALID,23.772,VALID,315,VALID,0,
2014-06-05, 00:45:04,VALID,1006.07,VALID,0,INVALID,110.2,VALID,0,VALID,23.7914,VALID,315,VALID,0,
2014-06-05, 00:46:04,VALID,1006.04,VALID,0,INVALID,110.215,VALID,0,VALID,23.7914,VALID,315,VALID,0,
2014-06-05, 00:47:04,VALID,1006.03,VALID,0,INVALID,110.223,VALID,0,VALID,23.772,VALID,315,VALID,0,
2014-06-05, 00:48:04,VALID,1006.02,VALID,0,INVALID,110.253,VALID,0,VALID,23.7932,VALID,315,VALID,0,
2014-06-05, 00:49:04,VALID,1006,VALID,0,INVALID,110.268,VALID,0,VALID,23.772,VALID,315,VALID,0,
2014-06-05, 00:50:04,VALID,1006.01,VALID,0,INVALID,110.284,VALID,0,VALID,23.772,VALID,315,VALID,0,
2014-06-05, 00:51:04,VALID,1005.97,VALID,0,INVALID,110.261,VALID,0,VALID,23.7525,VALID,315,VALID,0,
2014-06-05, 00:52:04,VALID,1005.98,VALID,0,INVALID,110.299,VALID,0.112112,VALID,23.7525,VALID,315,VALID,0,
2014-06-05, 00:53:04,VALID,1005.98,VALID,0,INVALID,110.314,VALID,0,VALID,23.7738,VALID,315,VALID,0,
2014-06-05, 00:54:04,VALID,1005.98,VALID,0,INVALID,110.268,VALID,0,VALID,23.7525,VALID,315,VALID,0,
2014-06-05, 00:55:04,VALID,1005.99,VALID,0,INVALID,110.322,VALID,0,VALID,23.7525,VALID,315,VALID,0,
2014-06-05, 00:56:04,VALID,1006.03,VALID,0,INVALID,110.36,VALID,0.112112,VALID,23.7525,VALID,315,VALID,0,
2014-06-05, 00:57:04,VALID,1005.99,VALID,0,INVALID,110.39,VALID,0.112112,VALID,23.7525,VALID,315,VALID,0,
2014-06-05, 00:58:04,VALID,1005.98,VALID,0,INVALID,110.352,VALID,0,VALID,23.733,VALID,315,VALID,0,
2014-06-05, 00:59:04,VALID,1005.98,VALID,0,INVALID,110.39,VALID,0,VALID,23.733,VALID,315,VALID,0,
2014-06-05, 01:00:04,VALID,1005.98,VALID,0,INVALID,110.398,VALID,0,VALID,23.733,VALID,315,VALID,0,
2014-06-05, 01:01:04,VALID,1005.97,VALID,0,INVALID,110.39,VALID,0,VALID,23.7525,VALID,315,VALID,0,
2014-06-05, 01:02:04,VALID,1006.01,VALID,0,INVALID,110.383,VALID,0,VALID,23.7525,VALID,315,VALID,0,
2014-06-05, 01:03:04,VALID,1006.04,VALID,0,INVALID,110.406,VALID,0,VALID,23.7932,VALID,315,VALID,0,
2014-06-05, 01:04:04,VALID,1006.05,VALID,0,INVALID,110.413,VALID,0.112112,VALID,23.7914,VALID,315,VALID,0,
2014-06-05, 01:05:04,VALID,1006.08,VALID,0,INVALID,110.436,VALID,0,VALID,23.7914,VALID,315,VALID,0,
2014-06-05, 01:06:04,VALID,1006.11,VALID,0,INVALID,110.444,VALID,0,VALID,23.8109,VALID,315,VALID,0,
2014-06-05, 01:07:04,VALID,1006.14,VALID,0,INVALID,110.39,VALID,0,VALID,23.8304,VALID,316,VALID,0,
2014-06-05, 01:08:04,VALID,1006.13,VALID,0,INVALID,110.39,VALID,0,VALID,23.8694,VALID,316,VALID,0,
2014-06-05, 01:09:04,VALID,1006.16,VALID,0,INVALID,110.406,VALID,0,VALID,23.9473,VALID,316,VALID,0,
2014-06-05, 01:10:04,VALID,1006.14,VALID,0,INVALID,110.429,VALID,0,VALID,24.0058,VALID,316,VALID,0,
2014-06-05, 01:11:04,VALID,1006.11,VALID,0,INVALID,110.429,VALID,0,VALID,24.0448,VALID,316,VALID,0,
2014-06-05, 01:12:04,VALID,1006.11,VALID,0,INVALID,110.444,VALID,0,VALID,24.0643,VALID,316,VALID,0,
2014-06-05, 01:13:04,VALID,1006.04,VALID,0,INVALID,110.512,VALID,0,VALID,24.0643,VALID,316,VALID,0,
2014-06-05, 01:14:04,VALID,1006,VALID,0,INVALID,110.551,VALID,0.112112,VALID,24.0837,VALID,316,VALID,0,
2014-06-05, 01:15:04,VALID,1005.98,VALID,0,INVALID,110.589,VALID,0,VALID,24.0837,VALID,316,VALID,0,
2014-06-05, 01:16:04,VALID,1005.97,VALID,0,INVALID,110.627,VALID,0,VALID,24.0624,VALID,316,VALID,0,
2014-06-05, 01:17:04,VALID,1005.93,VALID,0,INVALID,110.589,VALID,0,VALID,24.1032,VALID,316,VALID,0,
2014-06-05, 01:18:04,VALID,1005.93,VALID,0,INVALID,110.619,VALID,0.112112,VALID,24.1032,VALID,316,VALID,0,
2014-06-05, 01:19:04,VALID,1005.91,VALID,0,INVALID,110.642,VALID,0,VALID,24.1032,VALID,316,VALID,0,
2014-06-05, 01:20:04,VALID,1005.9,VALID,0,INVALID,110.65,VALID,0.112112,VALID,24.1032,VALID,316,VALID,0,
2014-06-05, 01:21:04,VALID,1005.9,VALID,0,INVALID,110.65,VALID,0.112112,VALID,24.0837,VALID,316,VALID,0,
2014-06-05, 01:22:04,VALID,1005.85,VALID,0,INVALID,110.604,VALID,0.112112,VALID,24.0643,VALID,316,VALID,0,
2014-06-05, 01:23:04,VALID,1005.85,VALID,0,INVALID,110.581,VALID,0.112112,VALID,24.0448,VALID,316,VALID,0,
2014-06-05, 01:24:04,VALID,1005.82,VALID,0,INVALID,110.558,VALID,0,VALID,24.0448,VALID,316,VALID,0,
2014-06-05, 01:25:04,VALID,1005.78,VALID,0,INVALID,110.581,VALID,0.112112,VALID,24.0253,VALID,316,VALID,0,
2014-06-05, 01:26:04,VALID,1005.79,VALID,0,INVALID,110.551,VALID,0.112112,VALID,24.0058,VALID,316,VALID,0,
2014-06-05, 01:27:04,VALID,1005.79,VALID,0,INVALID,110.551,VALID,0,VALID,24.0253,VALID,316,VALID,0,
2014-06-05, 01:28:04,VALID,1005.8,VALID,0,INVALID,110.566,VALID,0,VALID,24.0253,VALID,316,VALID,0,
2014-06-05, 01:29:04,VALID,1005.82,VALID,0,INVALID,110.604,VALID,0.112112,VALID,24.0253,VALID,316,VALID,0,
2014-06-05, 01:30:04,VALID,1005.87,VALID,0,INVALID,110.596,VALID,0.112112,VALID,24.0253,VALID,316,VALID,0,
2014-06-05, 01:31:04,VALID,1005.91,VALID,0,INVALID,110.612,VALID,0.112112,VALID,24.0448,VALID,315,VALID,0,
2014-06-05, 01:32:04,VALID,1005.96,VALID,0,INVALID,110.612,VALID,0,VALID,24.0856,VALID,270,VALID,0,
2014-06-05, 01:33:04,VALID,1006.02,VALID,0,INVALID,110.642,VALID,0,VALID,24.1245,VALID,201,VALID,0,
2014-06-05, 01:34:04,VALID,1006,VALID,0,INVALID,110.657,VALID,0,VALID,24.1032,VALID,201,VALID,0,
2014-06-05, 01:35:04,VALID,1006.02,VALID,0,INVALID,110.665,VALID,0.112112,VALID,24.1032,VALID,201,VALID,0,
2014-06-05, 01:36:04,VALID,1006.04,VALID,0,INVALID,110.65,VALID,0,VALID,24.1227,VALID,201,VALID,0,
2014-06-05, 01:37:04,VALID,1006.04,VALID,0,INVALID,110.65,VALID,0,VALID,24.1227,VALID,201,VALID,0,
2014-06-05, 01:38:04,VALID,1006.03,VALID,0,INVALID,110.619,VALID,0,VALID,24.1422,VALID,201,VALID,0,
2014-06-05, 01:39:04,VALID,1006.03,VALID,0,INVALID,110.65,VALID,0,VALID,24.183,VALID,201,VALID,0,
2014-06-05, 01:40:04,VALID,1006,VALID,0,INVALID,110.657,VALID,0,VALID,24.2025,VALID,201,VALID,0,
2014-06-05, 01:41:04,VALID,1005.99,VALID,0,INVALID,110.619,VALID,0,VALID,24.1812,VALID,201,VALID,0,
2014-06-05, 01:42:04,VALID,1005.97,VALID,0,INVALID,110.634,VALID,0,VALID,24.2025,VALID,201,VALID,0,
2014-06-05, 01:43:04,VALID,1005.98,VALID,0,INVALID,110.589,VALID,0,VALID,24.2007,VALID,201,VALID,0,
2014-06-05, 01:44:04,VALID,1005.98,VALID,0,INVALID,110.566,VALID,0,VALID,24.2007,VALID,201,VALID,0,
2014-06-05, 01:45:04,VALID,1006,VALID,0,INVALID,110.551,VALID,0,VALID,24.2007,VALID,201,VALID,0,
2014-06-05, 01:46:04,VALID,1006,VALID,0,INVALID,110.528,VALID,0,VALID,24.1812,VALID,201,VALID,0,
2014-06-05, 01:47:04,VALID,1005.99,VALID,0,INVALID,110.52,VALID,0,VALID,24.1812,VALID,201,VALID,0,
2014-06-05, 01:48:04,VALID,1005.99,VALID,0,INVALID,110.497,VALID,0,VALID,24.1812,VALID,201,VALID,0,
2014-06-05, 01:49:04,VALID,1005.96,VALID,0,INVALID,110.52,VALID,0,VALID,24.1812,VALID,201,VALID,0,
2014-06-05, 01:50:04,VALID,1005.97,VALID,0,INVALID,110.528,VALID,0,VALID,24.1617,VALID,201,VALID,0,
2014-06-05, 01:51:04,VALID,1005.92,VALID,0,INVALID,110.535,VALID,0.112112,VALID,24.1617,VALID,201,VALID,0,
2014-06-05, 01:52:04,VALID,1005.92,VALID,0,INVALID,110.535,VALID,0,VALID,24.1422,VALID,201,VALID,0,
2014-06-05, 01:53:04,VALID,1005.89,VALID,0,INVALID,110.52,VALID,0,VALID,24.1227,VALID,201,VALID,0,
2014-06-05, 01:54:04,VALID,1005.83,VALID,0,INVALID,110.528,VALID,0,VALID,24.1227,VALID,201,VALID,0,
2014-06-05, 01:55:04,VALID,1005.8,VALID,0,INVALID,110.589,VALID,0,VALID,24.1227,VALID,201,VALID,0,
2014-06-05, 01:56:04,VALID,1005.77,VALID,0,INVALID,110.581,VALID,0,VALID,24.144,VALID,201,VALID,0,
2014-06-05, 01:57:04,VALID,1005.76,VALID,0,INVALID,110.589,VALID,0,VALID,24.1422,VALID,201,VALID,0,
2014-06-05, 01:58:04,VALID,1005.73,VALID,0,INVALID,110.619,VALID,0.112112,VALID,24.1422,VALID,201,VALID,0,
2014-06-05, 01:59:04,VALID,1005.73,VALID,0,INVALID,110.619,VALID,0,VALID,24.1422,VALID,201,VALID,0,
2014-06-05, 02:00:04,VALID,1005.72,VALID,0,INVALID,110.665,VALID,0,VALID,24.1635,VALID,201,VALID,0,
2014-06-05, 02:01:04,VALID,1005.71,VALID,0,INVALID,110.657,VALID,0,VALID,24.1617,VALID,201,VALID,0,
2014-06-05, 02:02:04,VALID,1005.7,VALID,0,INVALID,110.673,VALID,0,VALID,24.1617,VALID,201,VALID,0,
2014-06-05, 02:03:04,VALID,1005.72,VALID,0,INVALID,110.665,VALID,0,VALID,24.1422,VALID,201,VALID,0,
2014-06-05, 02:04:04,VALID,1005.73,VALID,0,INVALID,110.68,VALID,0,VALID,24.1617,VALID,201,VALID,0,
2014-06-05, 02:05:04,VALID,1005.74,VALID,0,INVALID,110.65,VALID,0,VALID,24.1617,VALID,201,VALID,0,
2014-06-05, 02:06:04,VALID,1005.72,VALID,0,INVALID,110.634,VALID,0,VALID,24.1422,VALID,201,VALID,0,
2014-06-05, 02:07:04,VALID,1005.7,VALID,0,INVALID,110.627,VALID,0,VALID,24.1227,VALID,201,VALID,0,
2014-06-05, 02:08:04,VALID,1005.74,VALID,0,INVALID,110.566,VALID,0.112112,VALID,24.1227,VALID,201,VALID,0,
2014-06-05, 02:09:04,VALID,1005.73,VALID,0,INVALID,110.566,VALID,0.112112,VALID,24.1032,VALID,201,VALID,0,
2014-06-05, 02:10:04,VALID,1005.7,VALID,0,INVALID,110.573,VALID,0,VALID,24.0837,VALID,201,VALID,0,
2014-06-05, 02:11:04,VALID,1005.68,VALID,0,INVALID,110.589,VALID,0,VALID,24.1051,VALID,201,VALID,0,
2014-06-05, 02:12:04,VALID,1005.69,VALID,0,INVALID,110.634,VALID,0,VALID,24.1032,VALID,201,VALID,0,
2014-06-05, 02:13:04,VALID,1005.66,VALID,0,INVALID,110.634,VALID,0,VALID,24.1032,VALID,201,VALID,0,
2014-06-05, 02:14:04,VALID,1005.64,VALID,0,INVALID,110.695,VALID,0,VALID,24.1032,VALID,201,VALID,0,
2014-06-05, 02:15:04,VALID,1005.61,VALID,0,INVALID,110.665,VALID,0,VALID,24.1032,VALID,201,VALID,0,
2014-06-05, 02:16:04,VALID,1005.6,VALID,0,INVALID,110.68,VALID,0,VALID,24.1032,VALID,201,VALID,0,
2014-06-05, 02:17:04,VALID,1005.54,VALID,0,INVALID,110.703,VALID,0,VALID,24.1032,VALID,201,VALID,0,
2014-06-05, 02:18:04,VALID,1005.5,VALID,0,INVALID,110.65,VALID,0,VALID,24.0837,VALID,201,VALID,0,
2014-06-05, 02:19:04,VALID,1005.5,VALID,0,INVALID,110.65,VALID,0,VALID,24.0643,VALID,201,VALID,0,
2014-06-05, 02:20:04,VALID,1005.49,VALID,0,INVALID,110.65,VALID,0.112112,VALID,24.0448,VALID,201,VALID,0,
2014-06-05, 02:21:04,VALID,1005.53,VALID,0,INVALID,110.612,VALID,0,VALID,24.0448,VALID,201,VALID,0,
2014-06-05, 02:22:04,VALID,1005.53,VALID,0,INVALID,110.688,VALID,0,VALID,24.0448,VALID,201,VALID,0,
2014-06-05, 02:23:04,VALID,1005.55,VALID,0,INVALID,110.695,VALID,0,VALID,24.0643,VALID,201,VALID,0,
2014-06-05, 02:24:04,VALID,1005.57,VALID,0,INVALID,110.703,VALID,0,VALID,24.0837,VALID,201,VALID,0,
2014-06-05, 02:25:04,VALID,1005.56,VALID,0,INVALID,110.718,VALID,0,VALID,24.1227,VALID,201,VALID,0,
2014-06-05, 02:26:04,VALID,1005.54,VALID,0,INVALID,110.718,VALID,0,VALID,24.1422,VALID,201,VALID,0,
2014-06-05, 02:27:04,VALID,1005.52,VALID,0,INVALID,110.695,VALID,0,VALID,24.1812,VALID,201,VALID,0,
2014-06-05, 02:28:04,VALID,1005.53,VALID,0,INVALID,110.68,VALID,0,VALID,24.1812,VALID,201,VALID,0,
2014-06-05, 02:29:04,VALID,1005.54,VALID,0,INVALID,110.65,VALID,0,VALID,24.2007,VALID,201,VALID,0,
2014-06-05, 02:30:04,VALID,1005.52,VALID,0,INVALID,110.581,VALID,0,VALID,24.2202,VALID,201,VALID,0,
2014-06-05, 02:31:04,VALID,1005.57,VALID,0,INVALID,110.474,VALID,0,VALID,24.2202,VALID,201,VALID,0,
2014-06-05, 02:32:04,VALID,1005.55,VALID,0,INVALID,110.459,VALID,0.112112,VALID,24.2202,VALID,201,VALID,0,
2014-06-05, 02:33:04,VALID,1005.56,VALID,0,INVALID,110.413,VALID,0,VALID,24.2202,VALID,201,VALID,0,
2014-06-05, 02:34:04,VALID,1005.55,VALID,0,INVALID,110.406,VALID,0,VALID,24.2202,VALID,201,VALID,0,
2014-06-05, 02:35:04,VALID,1005.55,VALID,0,INVALID,110.375,VALID,0,VALID,24.2007,VALID,201,VALID,0,
2014-06-05, 02:36:04,VALID,1005.56,VALID,0,INVALID,110.39,VALID,0,VALID,24.2007,VALID,201,VALID,0,
2014-06-05, 02:37:04,VALID,1005.57,VALID,0,INVALID,110.345,VALID,0,VALID,24.1812,VALID,201,VALID,0,
2014-06-05, 02:38:04,VALID,1005.56,VALID,0,INVALID,110.337,VALID,0.112112,VALID,24.2007,VALID,201,VALID,0,
2014-06-05, 02:39:04,VALID,1005.56,VALID,0,INVALID,110.329,VALID,0.112112,VALID,24.1812,VALID,201,VALID,0,
2014-06-05, 02:40:04,VALID,1005.55,VALID,0,INVALID,110.291,VALID,0.112112,VALID,24.1617,VALID,116,VALID,0,
2014-06-05, 02:41:04,VALID,1005.56,VALID,0,INVALID,110.337,VALID,0,VALID,24.1422,VALID,116,VALID,0,
2014-06-05, 02:42:04,VALID,1005.56,VALID,0,INVALID,110.268,VALID,0,VALID,24.1422,VALID,116,VALID,0,
2014-06-05, 02:43:04,VALID,1005.57,VALID,0,INVALID,110.291,VALID,0,VALID,24.144,VALID,116,VALID,0,
2014-06-05, 02:44:04,VALID,1005.57,VALID,0,INVALID,110.314,VALID,0,VALID,24.1032,VALID,116,VALID,0,
2014-06-05, 02:45:04,VALID,1005.56,VALID,0,INVALID,110.375,VALID,0,VALID,24.1032,VALID,116,VALID,0,
2014-06-05, 02:46:04,VALID,1005.55,VALID,0,INVALID,110.39,VALID,0,VALID,24.0837,VALID,116,VALID,0,
2014-06-05, 02:47:04,VALID,1005.59,VALID,0,INVALID,110.451,VALID,0,VALID,24.0837,VALID,116,VALID,0,
2014-06-05, 02:48:04,VALID,1005.59,VALID,0,INVALID,110.467,VALID,0,VALID,24.0643,VALID,116,VALID,0,
2014-06-05, 02:49:04,VALID,1005.59,VALID,0,INVALID,110.49,VALID,0,VALID,24.0448,VALID,116,VALID,0,
2014-06-05, 02:50:04,VALID,1005.62,VALID,0,INVALID,110.49,VALID,0.112112,VALID,24.0253,VALID,116,VALID,0,
2014-06-05, 02:51:04,VALID,1005.58,VALID,0,INVALID,110.52,VALID,0.112112,VALID,24.0058,VALID,116,VALID,0,
2014-06-05, 02:52:04,VALID,1005.56,VALID,0,INVALID,110.497,VALID,0,VALID,23.9668,VALID,116,VALID,0,
2014-06-05, 02:53:04,VALID,1005.57,VALID,0,INVALID,110.497,VALID,0,VALID,23.9473,VALID,116,VALID,0,
2014-06-05, 02:54:04,VALID,1005.52,VALID,0,INVALID,110.512,VALID,0,VALID,23.9278,VALID,96,VALID,0,
2014-06-05, 02:55:04,VALID,1005.51,VALID,0,INVALID,110.512,VALID,0,VALID,23.9278,VALID,95,VALID,0,
2014-06-05, 02:56:04,VALID,1005.43,VALID,0,INVALID,110.535,VALID,0,VALID,23.9278,VALID,95,VALID,0,
2014-06-05, 02:57:04,VALID,1005.43,VALID,0,INVALID,110.566,VALID,0,VALID,23.9473,VALID,95,VALID,0,
2014-06-05, 02:58:04,VALID,1005.36,VALID,0,INVALID,110.573,VALID,0,VALID,23.9278,VALID,95,VALID,0,
2014-06-05, 02:59:04,VALID,1005.37,VALID,0,INVALID,110.566,VALID,0,VALID,23.9278,VALID,89,VALID,0,
2014-06-05, 03:00:04,VALID,1005.33,VALID,0,INVALID,110.604,VALID,0,VALID,23.926,VALID,82,VALID,0,
2014-06-05, 03:01:04,VALID,1005.32,VALID,0,INVALID,110.619,VALID,0,VALID,23.9473,VALID,76,VALID,0,
2014-06-05, 03:02:04,VALID,1005.34,VALID,0,INVALID,110.573,VALID,0,VALID,23.9278,VALID,76,VALID,0,
2014-06-05, 03:03:04,VALID,1005.28,VALID,0,INVALID,110.573,VALID,0,VALID,23.9278,VALID,76,VALID,0,
2014-06-05, 03:04:04,VALID,1005.25,VALID,0,INVALID,110.566,VALID,0,VALID,23.9084,VALID,76,VALID,0,
2014-06-05, 03:05:04,VALID,1005.22,VALID,0,INVALID,110.551,VALID,0,VALID,23.9084,VALID,76,VALID,0,
2014-06-05, 03:06:04,VALID,1005.16,VALID,0,INVALID,110.589,VALID,0.112112,VALID,23.9084,VALID,76,VALID,0,
2014-06-05, 03:07:04,VALID,1005.17,VALID,0,INVALID,110.596,VALID,0.112112,VALID,23.8889,VALID,76,VALID,0,
2014-06-05, 03:08:04,VALID,1005.19,VALID,0,INVALID,110.612,VALID,0.112112,VALID,23.8889,VALID,76,VALID,0,
2014-06-05, 03:09:04,VALID,1005.21,VALID,0,INVALID,110.604,VALID,0,VALID,23.8694,VALID,76,VALID,0,
2014-06-05, 03:10:04,VALID,1005.22,VALID,0,INVALID,110.604,VALID,0.112112,VALID,23.8694,VALID,76,VALID,0,
2014-06-05, 03:11:04,VALID,1005.26,VALID,0,INVALID,110.596,VALID,0,VALID,23.8499,VALID,76,VALID,0,
2014-06-05, 03:12:04,VALID,1005.29,VALID,0,INVALID,110.634,VALID,0.112112,VALID,23.8109,VALID,76,VALID,0,
2014-06-05, 03:13:04,VALID,1005.32,VALID,0,INVALID,110.657,VALID,0,VALID,23.7914,VALID,76,VALID,0,
2014-06-05, 03:14:04,VALID,1005.35,VALID,0,INVALID,110.68,VALID,0,VALID,23.772,VALID,76,VALID,0,
2014-06-05, 03:15:04,VALID,1005.37,VALID,0,INVALID,110.726,VALID,0,VALID,23.772,VALID,76,VALID,0,
2014-06-05, 03:16:04,VALID,1005.39,VALID,0,INVALID,110.711,VALID,0.112112,VALID,23.733,VALID,76,VALID,0,
2014-06-05, 03:17:04,VALID,1005.41,VALID,0,INVALID,110.749,VALID,0.112112,VALID,23.733,VALID,76,VALID,0,
2014-06-05, 03:18:04,VALID,1005.4,VALID,0,INVALID,110.749,VALID,0,VALID,23.7135,VALID,76,VALID,0,
2014-06-05, 03:19:04,VALID,1005.4,VALID,0,INVALID,110.772,VALID,0,VALID,23.733,VALID,76,VALID,0,
2014-06-05, 03:20:04,VALID,1005.4,VALID,0,INVALID,110.825,VALID,0,VALID,23.7135,VALID,76,VALID,0,
2014-06-05, 03:21:04,VALID,1005.41,VALID,0,INVALID,110.817,VALID,0,VALID,23.7348,VALID,73,VALID,0,
2014-06-05, 03:22:04,VALID,1005.38,VALID,0,INVALID,110.886,VALID,0,VALID,23.733,VALID,75,VALID,0,
2014-06-05, 03:23:04,VALID,1005.35,VALID,0,INVALID,110.878,VALID,0,VALID,23.733,VALID,68,VALID,0,
2014-06-05, 03:24:04,VALID,1005.34,VALID,0,INVALID,110.878,VALID,0,VALID,23.733,VALID,68,VALID,0,
2014-06-05, 03:25:04,VALID,1005.31,VALID,0,INVALID,110.894,VALID,0,VALID,23.733,VALID,68,VALID,0,
2014-06-05, 03:26:04,VALID,1005.27,VALID,0,INVALID,110.924,VALID,0,VALID,23.733,VALID,68,VALID,0,
2014-06-05, 03:27:04,VALID,1005.3,VALID,0,INVALID,110.932,VALID,0,VALID,23.733,VALID,68,VALID,0,
2014-06-05, 03:28:04,VALID,1005.27,VALID,0,INVALID,110.924,VALID,0,VALID,23.733,VALID,68,VALID,0,
2014-06-05, 03:29:04,VALID,1005.29,VALID,0,INVALID,110.901,VALID,0,VALID,23.733,VALID,68,VALID,0,
2014-06-05, 03:30:04,VALID,1005.27,VALID,0,INVALID,110.886,VALID,0.112112,VALID,23.733,VALID,68,VALID,0,
2014-06-05, 03:31:04,VALID,1005.27,VALID,0,INVALID,110.939,VALID,0,VALID,23.733,VALID,68,VALID,0,
2014-06-05, 03:32:04,VALID,1005.27,VALID,0,INVALID,110.909,VALID,0,VALID,23.7543,VALID,68,VALID,0,
2014-06-05, 03:33:04,VALID,1005.27,VALID,0,INVALID,110.894,VALID,0,VALID,23.733,VALID,68,VALID,0,
2014-06-05, 03:34:04,VALID,1005.26,VALID,0,INVALID,110.917,VALID,0,VALID,23.733,VALID,68,VALID,0,
2014-06-05, 03:35:04,VALID,1005.25,VALID,0,INVALID,110.924,VALID,0.112112,VALID,23.7525,VALID,68,VALID,0,
2014-06-05, 03:36:04,VALID,1005.22,VALID,0,INVALID,110.939,VALID,0,VALID,23.733,VALID,68,VALID,0,
2014-06-05, 03:37:04,VALID,1005.2,VALID,0,INVALID,110.924,VALID,0,VALID,23.733,VALID,68,VALID,0,
2014-06-05, 03:38:04,VALID,1005.18,VALID,0,INVALID,110.962,VALID,0,VALID,23.7525,VALID,68,VALID,0,
2014-06-05, 03:39:04,VALID,1005.17,VALID,0,INVALID,110.909,VALID,0,VALID,23.733,VALID,68,VALID,0,
2014-06-05, 03:40:04,VALID,1005.2,VALID,0,INVALID,110.932,VALID,0,VALID,23.733,VALID,68,VALID,0,
2014-06-05, 03:41:04,VALID,1005.18,VALID,0,INVALID,110.939,VALID,0,VALID,23.733,VALID,68,VALID,0,
2014-06-05, 03:42:04,VALID,1005.19,VALID,0,INVALID,110.901,VALID,0,VALID,23.7543,VALID,68,VALID,0,
2014-06-05, 03:43:04,VALID,1005.17,VALID,0,INVALID,110.939,VALID,0,VALID,23.7543,VALID,68,VALID,0,
2014-06-05, 03:44:04,VALID,1005.17,VALID,0,INVALID,110.909,VALID,0,VALID,23.7525,VALID,68,VALID,0,
2014-06-05, 03:45:04,VALID,1005.2,VALID,0,INVALID,110.909,VALID,0,VALID,23.772,VALID,68,VALID,0,
2014-06-05, 03:46:04,VALID,1005.22,VALID,0,INVALID,110.901,VALID,0,VALID,23.7914,VALID,68,VALID,0,
2014-06-05, 03:47:04,VALID,1005.22,VALID,0,INVALID,110.947,VALID,0,VALID,23.7914,VALID,126,VALID,0,
2014-06-05, 03:48:04,VALID,1005.25,VALID,0,INVALID,110.97,VALID,0,VALID,23.772,VALID,128,VALID,0,
2014-06-05, 03:49:04,VALID,1005.25,VALID,0,INVALID,110.97,VALID,0,VALID,23.7738,VALID,123,VALID,0,
2014-06-05, 03:50:04,VALID,1005.29,VALID,0,INVALID,110.955,VALID,0,VALID,23.7525,VALID,122,VALID,0,
2014-06-05, 03:51:04,VALID,1005.32,VALID,0,INVALID,110.955,VALID,0,VALID,23.7738,VALID,121,VALID,0.8,
2014-06-05, 03:52:04,VALID,1005.34,VALID,0,INVALID,110.917,VALID,0,VALID,23.7525,VALID,116,VALID,0.790625,
2014-06-05, 03:53:04,VALID,1005.36,VALID,0,INVALID,110.939,VALID,0,VALID,23.7525,VALID,107,VALID,0,
2014-06-05, 03:54:04,VALID,1005.38,VALID,0,INVALID,110.932,VALID,0,VALID,23.7525,VALID,106,VALID,0,